Back to catalog

DMSP 5D-2 F11 DEB

AliveSSO
NORAD 28309·DEBRIS·🇺🇸 United States

Launched Nov 28, 1991 from Vandenberg Space Force Base

Loading…

Next Passes (next 24 hours)

TLE

FreshSource: Space-Track

Epoch: Sep 14, 2026, 08:32 UTC

1 28309U 91082W   26257.35567770  .00000056  00000-0  44514-4 0  9997
2 28309  98.7036 278.5701 0014631 356.0538  15.8927 14.22696589162229

Track DMSP 5D-2 F11 DEB in real time with AllMySat

Download on the App Store